Temperature
15 15 15 15 15 15 15 14 14 14 14 14 14 14 14 14 14 14 14 14 14 14 14 14 14 14 13 13 13 13 13 13 13 13 14 14 14 14 14 14 14 14 14
15 15 15 14 14 14 14 14 14 14 14 14 14 14 14 14 14 14 14 14 13 13 13 13 13 13 13 13 13 13 13 13 13 13 13 13 13 13 13 13 13 13 13
15 15 14 14 14 14 14 14 14 14 14 14 14 14 14 14 13 13 13 13 13 13 13 13 13 13 13 13 13 13 13 13 13 13 13 13 13 13 13 13 13 13 13
14 14 14 14 14 14 14 14 14 14 14 14 14 14 13 13 13 13 13 13 13 13 13 13 13 13 13 13 13 13 13 13 13 13 13 13 13 13 13 13 13 13 13
14 14 14 14 14 14 13 13 13 13 13 13 13 13 13 13 13 13 13 13 13 13 13 13 12 12 12 12 12 12 12 12 12 12 12 12 12 12 12 12 12 12 12
14 14 14 14 14 13 13 13 13 13 13 13 13 13 13 13 13 13 13 13 13 13 12 12 12 12 12 12 12 12 12 12 12 12 12 12 12 12 12 12 12 12 12
14 14 14 13 13 13 13 13 13 13 13 13 13 13 13 13 13 13 12 12 12 12 12 12 12 12 12 12 12 12 12 12 12 12 12 12 12 12 12 11 11 11 12
14 14 13 13 13 13 13 13 13 13 12 12 12 12 12 12 12 12 12 12 12 12 12 12 12 12 11 11 11 11 11 11 11 11 11 11 11 11 11 11 11 11 11
14 14 13 13 13 13 13 13 13 12 12 12 12 12 12 12 12 12 12 12 12 12 12 12 11 11 11 11 11 11 11 11 11 11 11 11 11 11 11 11 11 11 11
13 13 13 13 13 13 13 12 12 12 12 12 12 12 12 12 12 12 11 11 11 11 11 11 11 11 11 11 11 11 11 11 11 11 11 10 10 10 10 10 10 10 10
13 13 13 13 13 13 12 12 12 12 12 12 12 12 11 11 11 11 11 11 11 11 11 11 11 11 11 11 11 11 11 11 10 10 10 10 10 10 10 10 10 10 10
13 13 13 12 12 12 12 12 12 12 12 11 11 11 11 11 11 11 11 11 11 11 11 11 11 11 11 11 11 11 10 10 10 10 10 10 10 10 10 10 10 10 10
12 12 12 12 12 12 12 12 11 11 11 11 11 11 11 11 11 11 11 11 10 10 10 10 10 10 10 10 10 10 10 10 10 10 10 10 10 10 10 10 10 10 10
12 12 12 12 12 12 11 11 11 11 11 11 11 11 11 11 10 10 10 10 10 10 10 10 10 10 10 10 10 10 10 10 10 10 10 10 10 10 10 10 10 10 10
12 11 11 12 11 11 11 11 11 11 11 11 11 11 10 10 10 10 10 10 10 10 10 10 10 10 10 10 10 10 10 10 10 9 9 9 9 9 9 9 9 9 9
11 11 11 11 11 11 11 11 11 11 11 11 11 10 10 10 10 10 10 10 10 10 10 10 10 10 10 10 10 10 9 9 9 9 9 9 9 9 9 9 9 9 9
11 11 11 11 11 11 11 11 11 11 10 10 10 10 10 10 10 10 10 9 9 9 9 9 9 9 9 9 9 9 9 9 9 9 9 9 9 9 9 9 9 9 9
11 11 11 11 11 11 11 11 11 10 10 10 10 10 10 10 10 9 9 9 9 9 9 9 9 9 9 9 9 9 9 9 9 9 9 9 9 9 9 9 9 8 8
11 11 11 11 11 11 11 10 10 10 10 10 10 10 10 10 9 9 9 9 9 9 9 9 9 9 9 9 9 9 9 9 9 9 9 9 9 9 9 8 8 8 8
11 11 11 10 10 10 10 10 10 10 10 10 10 10 10 9 9 9 9 9 9 8 8 8 8 8 8 8 8 8 8 8 9 9 8 8 8 8 8 8 8 8 8
10 10 10 10 10 10 10 10 10 10 9 9 9 9 9 9 9 9 9 8 8 8 8 8 8 8 8 8 8 8 8 8 8 8 8 8 8 8 8 8 8 8 8
10 10 10 10 10 10 9 9 9 9 9 9 9 9 9 9 8 8 8 8 8 8 8 8 7 7 7 7 7 8 8 8 8 8 8 8 8 8 8 8 8 7 7
9 9 9 9 9 9 9 9 9 9 9 9 8 8 8 8 8 8 8 8 8 7 7 7 7 7 7 7 7 7 7 7 7 7 7 7 7 7 7 7 7 7 7
9 9 9 9 9 9 9 9 9 8 8 8 8 8 8 8 8 8 8 7 7 7 7 7 7 7 7 7 7 7 7 7 7 7 7 7 7 7 7 7 7 7 7
9 9 9 8 8 8 8 8 8 8 8 8 8 8 7 7 7 7 7 7 7 7 7 7 7 6 6 6 6 6 6 6 6 6 7 7 7 6 6 7 7 7 7
8 8 8 8 8 8 8 8 8 8 8 7 7 7 7 7 7 7 7 7 7 7 7 7 6 6 6 6 6 6 6 6 6 6 6 6 6 6 6 6 6 6 6
Wind_Speed
4 3 3 3 3 3 3 3 2 2 2 2 3 2 2 2 2 2 2 2 3 3 3 3 4 3 3 3 3 4 4 4 5 4 3 3 3 3 3 4 5 5 6
4 4 3 3 3 2 2 2 2 2 2 2 3 3 2 2 2 2 3 2 3 3 4 3 4 3 3 3 3 4 4 5 5 5 3 3 3 3 3 3 3 3 4
5 4 4 3 3 3 3 2 2 2 2 2 3 3 2 2 2 2 2 2 2 3 3 4 4 3 3 3 3 4 3 4 4 4 4 3 2 2 1 2 2 2 3
5 4 4 3 3 3 3 2 2 2 2 2 2 3 3 3 3 2 2 2 2 3 3 3 3 3 4 4 3 4 3 3 3 3 3 2 2 1 1 1 2 2 2
5 4 4 3 3 2 2 2 2 2 2 2 1 2 2 2 2 3 3 3 2 2 3 3 3 3 3 3 3 3 3 3 3 2 2 1 1 1 1 1 2 2 2
5 4 3 2 2 2 2 2 2 1 1 1 1 2 2 2 3 4 3 2 2 2 2 2 2 2 2 2 3 4 4 4 4 3 3 3 3 3 2 2 2 1 2
4 3 3 3 3 2 3 2 2 2 1 1 1 1 2 3 3 3 3 2 2 2 2 2 2 1 1 1 1 2 2 4 6 5 5 5 4 4 3 3 2 2 3
3 3 3 3 2 2 2 2 1 1 1 1 2 2 2 2 1 2 2 2 1 2 2 2 2 2 1 1 1 0 1 2 4 4 5 5 4 4 4 3 3 2 3
3 3 3 3 3 3 3 2 1 1 1 1 1 1 1 2 1 1 2 1 1 1 1 1 2 2 2 2 2 1 1 2 2 1 2 2 2 3 3 2 1 1 2
3 3 3 3 4 3 3 2 1 2 2 1 1 1 1 2 2 1 2 1 1 1 1 1 1 2 2 2 2 2 1 2 2 2 1 1 1 1 3 3 3 2 2
3 3 3 3 3 3 2 1 1 1 1 0 0 1 1 2 1 1 1 2 2 1 1 1 2 2 2 2 3 2 3 2 1 1 1 1 1 1 1 2 3 3 3
3 3 2 2 2 2 2 1 1 2 2 1 1 1 1 1 1 1 1 2 2 2 2 2 2 2 2 2 2 2 2 1 1 0 1 1 1 1 2 2 3 3 4
3 3 2 2 1 2 3 2 1 1 2 1 1 1 2 1 1 1 1 2 2 2 2 2 2 1 1 1 1 1 1 1 1 1 1 2 2 2 2 1 1 2 2
3 2 2 2 1 1 1 2 2 2 2 2 2 2 2 1 1 1 1 0 0 1 1 1 1 1 0 0 0 0 0 1 1 1 2 2 2 1 1 1 1 1 1
3 2 2 2 2 1 1 1 2 2 4 4 4 3 3 3 3 3 1 1 1 1 0 1 1 1 1 1 1 1 0 0 1 1 1 2 2 2 2 1 1 1 1
2 2 2 2 2 2 1 0 1 0 1 2 3 4 3 3 2 2 2 2 1 2 2 0 1 1 2 2 2 2 1 1 2 1 1 2 2 2 2 1 1 1 2
3 2 2 2 2 2 2 2 1 2 3 2 0 1 2 2 2 1 1 1 2 3 1 1 2 2 2 2 2 2 3 2 2 2 2 2 3 3 2 2 2 2 3
2 2 2 2 2 2 2 2 2 2 0 2 2 1 1 1 1 1 2 3 2 1 1 2 2 3 3 3 3 3 3 2 2 2 3 3 3 3 3 3 3 3 3
2 2 2 2 2 2 2 2 2 2 1 1 1 2 1 1 1 2 2 1 1 1 2 2 3 3 3 3 3 2 2 3 3 2 3 3 3 3 3 3 3 3 3
2 2 2 2 2 1 1 2 1 1 1 1 1 0 0 1 1 1 1 1 1 2 2 2 3 3 3 2 2 2 2 2 2 2 3 3 3 3 3 4 3 3 3
1 2 2 2 2 2 2 2 2 2 1 1 1 1 2 1 1 1 1 2 2 2 2 2 2 2 2 2 2 2 2 2 3 3 3 3 3 3 3 3 4 4 4
1 1 2 2 2 2 2 2 2 2 2 1 1 1 1 1 1 2 2 2 2 2 2 2 2 2 3 3 3 3 3 3 3 3 3 3 3 3 3 3 3 3 3
2 1 1 2 2 2 2 1 2 2 2 2 1 1 1 1 2 2 3 3 2 3 2 2 2 2 3 3 3 3 4 4 4 4 3 3 3 3 3 3 4 3 3
2 2 2 1 1 2 2 2 2 2 2 2 1 1 2 2 2 2 3 2 3 3 3 2 3 3 4 3 3 3 3 4 4 4 4 4 4 4 3 3 3 4 3
2 2 2 2 2 2 2 2 2 2 2 2 2 2 2 2 2 2 2 2 3 3 3 3 3 3 4 4 4 3 4 4 3 3 3 3 4 4 4 4 3 3 3
2 2 2 2 2 2 3 3 3 3 3 3 3 3 3 3 3 3 2 2 3 3 3 3 3 3 3 4 4 4 3 3 4 3 2 3 3 3 3 3 3 3 3
Wind_Direction
157 161 160 168 162 151 157 174 170 164 161 170 176 184 199 201 195 188 209 205 207 225 232 231 242 232 224 222 213 213 214 214 238 263 256 258 244 247 256 243 246 244 249
163 156 164 167 151 155 174 170 159 167 170 171 174 180 200 211 204 200 213 218 219 230 236 233 243 233 227 231 223 222 221 218 224 249 263 258 247 244 245 244 254 246 243
163 160 159 165 167 183 192 177 165 169 168 175 179 188 203 208 210 214 213 222 233 241 235 233 238 222 233 239 230 229 226 222 219 231 254 257 263 272 264 263 262 264 258
161 161 166 183 193 198 196 181 179 176 172 189 197 203 208 208 207 211 217 229 243 253 248 238 237 225 228 235 234 232 219 214 216 226 248 265 270 275 234 255 288 286 275
157 164 180 193 194 191 189 193 192 187 183 193 188 208 210 208 214 210 216 225 236 259 267 257 248 238 229 225 232 223 208 207 206 218 237 264 272 263 254 247 252 277 272
163 173 174 170 180 183 182 185 178 183 179 174 206 219 223 235 230 214 209 222 230 237 255 272 270 253 243 222 225 209 197 198 200 202 218 227 239 240 242 235 240 266 280
159 158 164 170 179 183 178 164 167 172 160 167 212 224 243 255 232 210 201 201 219 233 236 247 262 280 258 264 245 211 215 215 201 198 209 222 225 223 214 219 223 238 251
154 160 166 166 176 175 162 162 160 146 168 199 217 227 243 276 253 192 182 191 218 244 243 231 235 271 261 207 163 65 309 275 237 221 220 227 228 219 209 213 224 247 271
164 171 181 180 177 172 172 177 172 162 189 224 217 219 231 272 243 192 166 170 210 269 269 255 239 244 241 156 140 121 2 325 324 242 223 235 225 206 181 162 177 246 285
185 186 183 180 175 176 180 179 171 172 195 213 227 234 237 260 264 212 161 173 213 270 299 299 256 238 229 172 161 159 229 291 315 339 332 314 260 215 186 197 203 219 259
178 168 166 168 170 168 154 150 159 160 151 177 297 306 278 264 283 268 183 187 213 238 260 279 281 271 245 210 186 202 226 231 247 261 286 291 305 289 260 241 225 218 231
149 150 154 159 167 157 146 155 159 163 167 201 249 308 301 284 274 288 232 221 208 203 241 262 270 271 246 211 208 224 203 185 192 208 295 293 286 289 285 270 245 240 242
131 136 144 151 161 157 163 174 183 192 186 204 204 251 292 304 309 321 254 233 229 216 241 259 271 255 211 208 212 200 172 164 172 214 265 277 273 276 288 293 268 277 287
134 150 153 150 149 146 172 188 194 209 204 202 207 225 247 281 300 317 306 269 239 259 283 321 342 346 104 233 293 248 178 211 211 240 273 284 297 304 287 282 283 298 308
145 152 157 166 166 165 184 208 209 222 214 206 213 209 209 236 256 242 219 239 232 231 196 14 6 354 333 308 319 315 269 227 240 251 261 279 292 298 301 296 270 277 267
147 172 175 172 174 175 173 358 0 301 258 201 198 196 214 223 234 223 228 220 185 139 115 111 289 280 268 263 269 282 271 255 251 251 265 274 279 283 291 293 274 255 268
161 180 184 182 185 189 184 180 226 358 31 41 51 185 196 195 206 213 193 144 107 122 117 232 250 258 262 263 262 259 261 265 259 256 261 269 274 274 271 266 263 268 274
159 175 181 188 191 195 195 197 197 191 251 344 359 346 248 192 177 172 143 101 61 62 251 260 265 261 261 257 258 265 268 272 269 265 265 267 271 268 265 263 258 261 269
171 184 190 187 184 183 180 175 174 174 188 241 6 8 4 62 88 105 130 139 215 255 264 268 275 274 266 260 256 260 265 266 268 265 264 264 264 267 265 261 256 255 259
186 195 180 170 166 161 159 158 159 164 174 184 214 258 74 70 40 5 339 286 260 270 268 266 273 278 275 259 251 259 272 282 285 278 269 263 264 265 269 265 256 255 257
199 202 180 165 178 185 185 187 185 183 191 197 226 255 186 192 235 257 264 278 273 271 273 274 279 283 286 282 262 253 264 275 277 277 277 275 268 268 272 266 257 257 259
186 198 194 196 200 193 201 196 185 186 193 195 233 254 196 213 241 261 262 262 270 267 265 264 267 270 271 272 268 256 254 264 271 272 274 276 273 275 280 274 265 267 267
169 176 192 204 200 192 189 188 191 194 197 202 204 207 224 248 252 256 262 270 277 276 269 254 260 275 277 269 261 250 247 255 262 263 265 271 274 273 273 274 267 272 275
187 194 201 214 201 196 196 198 201 203 203 206 214 222 233 244 259 266 267 272 274 271 263 252 249 262 276 281 281 273 264 265 263 254 256 261 266 269 267 268 269 268 272
195 200 204 210 216 218 215 214 218 221 221 224 226 232 243 253 263 272 281 286 284 277 270 259 256 260 265 268 277 285 297 295 289 282 263 257 260 265 265 265 270 276 275
207 210 213 214 226 231 226 223 221 224 229 232 237 241 245 247 253 264 275 283 282 276 274 267 263 263 264 266 275 281 282 285 293 295 280 266 269 271 275 272 273 272 275
Height
1482 1484 1486 1488 1489 1490 1491 1493 1494 1495 1497 1498 1499 1500 1501 1501 1502 1503 1504 1504 1504 1505 1505 1505 1506 1506 1506 1507 1507 1507 1508 1508 1508 1508 1508 1509 1509 1510 1510 1510 1510 1511 1512
1480 1482 1485 1487 1488 1489 1489 1491 1492 1493 1494 1495 1497 1498 1499 1500 1500 1501 1501 1501 1502 1502 1502 1503 1502 1503 1503 1503 1504 1504 1504 1505 1505 1504 1505 1506 1506 1506 1507 1507 1507 1508 1508
1479 1481 1483 1485 1486 1487 1488 1489 1490 1491 1492 1493 1495 1496 1497 1498 1498 1498 1499 1499 1499 1499 1499 1500 1499 1499 1500 1500 1500 1501 1501 1502 1502 1501 1501 1502 1502 1503 1503 1503 1504 1504 1505
1477 1479 1480 1482 1484 1485 1486 1487 1488 1489 1490 1491 1492 1494 1495 1495 1496 1496 1497 1497 1497 1497 1497 1497 1497 1496 1496 1497 1497 1497 1498 1498 1498 1498 1498 1498 1499 1499 1500 1500 1500 1501 1501
1475 1477 1479 1480 1482 1483 1484 1485 1486 1487 1488 1489 1490 1491 1492 1493 1493 1493 1494 1494 1494 1494 1494 1494 1494 1494 1493 1494 1494 1494 1494 1494 1495 1495 1495 1495 1496 1496 1496 1496 1496 1497 1497
1474 1475 1477 1478 1480 1481 1482 1483 1484 1485 1486 1487 1488 1489 1489 1490 1490 1491 1491 1491 1491 1491 1491 1491 1491 1491 1491 1491 1491 1491 1491 1491 1491 1492 1492 1492 1492 1493 1493 1493 1493 1493 1493
1472 1474 1476 1477 1478 1479 1480 1481 1482 1483 1484 1485 1486 1486 1487 1487 1488 1488 1488 1488 1488 1488 1488 1488 1488 1488 1488 1488 1488 1488 1488 1488 1489 1489 1489 1489 1489 1490 1490 1490 1490 1490 1490
1471 1473 1474 1476 1477 1478 1479 1479 1480 1481 1482 1483 1483 1484 1484 1484 1485 1485 1485 1485 1485 1485 1485 1485 1485 1485 1485 1484 1484 1484 1485 1485 1485 1486 1486 1486 1486 1487 1487 1487 1487 1487 1487
1470 1471 1473 1474 1475 1476 1477 1478 1478 1479 1480 1481 1481 1481 1481 1482 1482 1482 1482 1482 1482 1482 1482 1482 1482 1482 1482 1482 1482 1482 1482 1482 1483 1483 1483 1483 1484 1484 1484 1484 1484 1484 1483
1469 1470 1472 1473 1474 1474 1475 1476 1477 1478 1479 1479 1479 1479 1479 1479 1480 1479 1479 1479 1479 1479 1479 1479 1479 1479 1479 1479 1480 1479 1479 1480 1480 1480 1480 1481 1481 1481 1481 1481 1481 1481 1480
1468 1470 1471 1472 1473 1473 1474 1475 1475 1476 1476 1477 1477 1477 1477 1477 1477 1477 1477 1477 1476 1476 1476 1476 1476 1477 1477 1477 1478 1478 1478 1478 1477 1477 1478 1478 1478 1478 1478 1478 1478 1478 1478
1467 1468 1469 1470 1471 1472 1473 1473 1474 1474 1474 1474 1475 1475 1475 1475 1475 1475 1475 1475 1474 1474 1474 1474 1474 1475 1475 1475 1475 1476 1476 1476 1475 1475 1475 1475 1475 1475 1475 1475 1475 1475 1475
1466 1467 1468 1469 1470 1471 1472 1472 1472 1472 1472 1472 1473 1472 1472 1473 1473 1473 1473 1473 1473 1472 1472 1472 1473 1473 1473 1473 1473 1474 1474 1474 1473 1472 1472 1472 1473 1473 1472 1472 1472 1472 1472
1465 1466 1468 1468 1469 1470 1470 1471 1471 1471 1470 1471 1471 1471 1471 1471 1471 1471 1471 1471 1471 1471 1471 1470 1470 1471 1471 1471 1471 1471 1472 1471 1471 1470 1470 1470 1470 1470 1470 1469 1469 1469 1469
1464 1465 1466 1467 1468 1468 1469 1469 1469 1469 1469 1469 1469 1469 1469 1468 1469 1469 1469 1469 1469 1469 1469 1469 1469 1468 1468 1469 1469 1469 1469 1469 1468 1468 1468 1468 1468 1467 1467 1467 1466 1466 1466
1462 1464 1465 1465 1466 1467 1467 1467 1467 1468 1468 1467 1468 1468 1468 1468 1468 1468 1468 1468 1468 1468 1467 1467 1467 1467 1467 1467 1467 1466 1466 1466 1466 1466 1466 1465 1465 1465 1464 1464 1464 1463 1463
1462 1462 1463 1464 1465 1465 1465 1465 1465 1466 1466 1466 1466 1466 1466 1467 1467 1467 1467 1466 1466 1466 1465 1465 1465 1465 1465 1465 1464 1464 1464 1464 1464 1464 1464 1463 1463 1462 1461 1461 1460 1460 1460
1461 1462 1462 1462 1463 1464 1464 1464 1464 1464 1464 1464 1465 1465 1465 1465 1465 1465 1465 1465 1464 1463 1463 1463 1463 1463 1462 1462 1462 1462 1462 1462 1462 1461 1461 1461 1460 1459 1459 1458 1458 1457 1457
1460 1461 1461 1461 1461 1462 1462 1462 1462 1462 1462 1462 1463 1463 1463 1463 1463 1463 1463 1462 1462 1461 1461 1461 1461 1460 1460 1460 1460 1460 1460 1459 1459 1459 1458 1458 1457 1457 1456 1455 1454 1454 1454
1458 1459 1460 1460 1460 1460 1460 1460 1460 1460 1460 1460 1460 1461 1461 1461 1460 1460 1460 1460 1459 1459 1459 1458 1458 1458 1458 1457 1457 1457 1457 1457 1456 1456 1455 1455 1455 1454 1453 1452 1451 1451 1451
1456 1457 1458 1458 1458 1458 1458 1458 1458 1458 1458 1458 1459 1459 1459 1459 1458 1458 1458 1458 1457 1456 1456 1456 1456 1455 1455 1455 1455 1455 1454 1454 1454 1453 1453 1452 1452 1451 1450 1449 1449 1448 1447
1455 1455 1456 1456 1456 1457 1457 1456 1456 1457 1457 1457 1457 1457 1457 1457 1456 1456 1456 1455 1455 1454 1454 1454 1453 1453 1453 1453 1452 1452 1451 1451 1451 1451 1450 1450 1449 1448 1447 1446 1445 1445 1444
1453 1453 1454 1454 1454 1454 1454 1454 1454 1454 1454 1455 1455 1454 1454 1454 1454 1453 1453 1453 1452 1452 1451 1451 1450 1450 1450 1450 1449 1449 1448 1448 1448 1448 1447 1446 1446 1445 1444 1443 1442 1441 1441
1451 1451 1451 1451 1452 1452 1452 1452 1452 1452 1452 1452 1452 1452 1452 1452 1451 1451 1451 1450 1449 1449 1448 1448 1447 1447 1447 1447 1446 1446 1445 1445 1445 1444 1444 1443 1442 1441 1441 1440 1439 1438 1438
1448 1449 1449 1449 1449 1449 1449 1449 1449 1449 1449 1450 1449 1449 1449 1449 1449 1448 1448 1447 1446 1446 1445 1445 1445 1444 1444 1444 1443 1443 1442 1442 1441 1441 1440 1440 1439 1438 1438 1437 1436 1435 1435
1445 1446 1446 1446 1446 1446 1447 1446 1446 1446 1446 1446 1446 1446 1446 1445 1445 1445 1444 1444 1443 1443 1442 1442 1441 1441 1441 1440 1440 1440 1439 1439 1439 1438 1438 1437 1436 1435 1435 1434 1433 1432 1431